Location: Observatoire de Paris
(48.8363°N, 2.3365°E)
Time: 04:54:52
(UTC+01:00)

METEOR M2 - Pass Details

Date: 23 September 2021
Orbit: 819 x 826 km, 98.5° (Epoch: 19 October)

Event Time Altitude Azimuth Distance (km) Brightness Sun altitude
Rises 20:53:11 0° 212° (SSW) 3,339 ? -21.1°
Reaches altitude 10° 20:56:24 10° 233° (SW) 2,413 ? -21.6°
Maximum altitude 20:59:44 17° 272° (W) 1,987 ? -22.1°
Drops below altitude 10° 21:03:07 10° 311° (NW) 2,426 ? -22.6°
Sets 21:06:23 0° 332° (NNW) 3,365 ? -23.0°
